| time (UTC) | temp C | wind direction | speed KPH | gust KPH | rain 1hr cm | rain 24hr cm | rain mn cm | humidity % | barometer mb |
| 20260503173734 | 19 | 299 | 4.8 | 16.1 | 0.00 | 0.00 | 0.03 | 52 | 1018.2 |
| 20260503172834 | 20 | 7 | 4.8 | 16.1 | 0.00 | 0.00 | 0.03 | 50 | 1018.2 |
| 20260503171934 | 19 | 302 | 3.2 | 8.0 | 0.00 | 0.00 | 0.03 | 50 | 1018.2 |
| 20260503171034 | 20 | 2 | 4.8 | 11.3 | 0.00 | 0.00 | 0.03 | 50 | 1018.3 |
| 20260503150434 | 17 | 36 | 4.8 | 24.1 | 0.03 | 0.00 | 0.03 | 46 | 1019.4 |
| 20260503110134 | 7 | 351 | 1.6 | 3.2 | 0.00 | 0.00 | 0.00 | 93 | 1017.3 |
| 20260503090434 | 8 | 331 | 0.0 | 0.0 | 0.00 | 0.00 | 0.00 | 93 | 1015.8 |
| 20260503080135 | 9 | 331 | 0.0 | 0.0 | 0.00 | 0.00 | 0.00 | 93 | 1015.4 |
| 20260503072534 | 9 | 331 | 0.0 | 0.0 | 0.00 | 0.00 | 0.00 | 93 | 1015.2 |
| 20260503071634 | 10 | 331 | 0.0 | 0.0 | 0.00 | 0.00 | 0.00 | 93 | 1015.0 |
| 20260503070734 | 10 | 331 | 0.0 | 3.2 | 0.00 | 0.00 | 0.00 | 93 | 1014.9 |
| 20260503054634 | 11 | 326 | 1.6 | 3.2 | 0.00 | 0.00 | 0.00 | 93 | 1014.5 |
| 20260503053734 | 11 | 326 | 0.0 | 3.2 | 0.00 | 0.00 | 0.00 | 93 | 1014.6 |
| 20260503052834 | 11 | 344 | 0.0 | 3.2 | 0.00 | 0.00 | 0.00 | 93 | 1014.5 |
| 20260503051934 | 11 | 347 | 0.0 | 3.2 | 0.00 | 0.00 | 0.00 | 93 | 1014.2 |
| 20260503051034 | 11 | 347 | 0.0 | 6.4 | 0.00 | 0.00 | 0.00 | 93 | 1014.2 |
| 20260503050134 | 11 | 339 | 0.0 | 4.8 | 0.00 | 0.00 | 0.00 | 93 | 1014.3 |
| 20260503045234 | 11 | 329 | 1.6 | 6.4 | 0.00 | 0.00 | 0.00 | 93 | 1014.1 |
| 20260503044334 | 11 | 344 | 3.2 | 9.7 | 0.00 | 0.00 | 0.00 | 93 | 1014.1 |
| 20260503043434 | 11 | 6 | 1.6 | 6.4 | 0.00 | 0.00 | 0.00 | 93 | 1013.9 |
| 20260503042534 | 11 | 349 | 1.6 | 6.4 | 0.00 | 0.00 | 0.00 | 93 | 1013.9 |
| 20260503041634 | 11 | 350 | 1.6 | 9.7 | 0.00 | 0.00 | 0.00 | 93 | 1013.8 |
| 20260503040734 | 11 | 351 | 1.6 | 4.8 | 0.00 | 0.00 | 0.00 | 94 | 1013.9 |
| 20260503034934 | 11 | 2 | 1.6 | 6.4 | 0.00 | 0.00 | 1.73 | 93 | 1013.4 |
| 20260503034034 | 11 | 341 | 1.6 | 6.4 | 0.00 | 0.00 | 1.73 | 93 | 1013.2 |
| 20260503032234 | 11 | 351 | 3.2 | 8.0 | 0.00 | 0.00 | 1.73 | 93 | 1013.0 |
| 20260503031334 | 11 | 346 | 1.6 | 8.0 | 0.00 | 0.00 | 1.73 | 93 | 1012.9 |
| 20260503030434 | 11 | 348 | 3.2 | 9.7 | 0.00 | 0.00 | 1.73 | 93 | 1012.9 |
| 20260503025534 | 11 | 359 | 3.2 | 11.3 | 0.00 | 0.00 | 1.73 | 93 | 1012.9 |
| 20260503024634 | 11 | 4 | 3.2 | 11.3 | 0.00 | 0.00 | 1.73 | 93 | 1012.9 |
| 20260503023734 | 11 | 357 | 3.2 | 11.3 | 0.00 | 0.00 | 1.73 | 93 | 1012.9 |
| 20260503022834 | 11 | 15 | 3.2 | 6.4 | 0.00 | 0.00 | 1.73 | 93 | 1012.7 |
| 20260503021934 | 11 | 6 | 1.6 | 8.0 | 0.00 | 0.00 | 1.73 | 93 | 1012.6 |
| 20260503021034 | 11 | 352 | 1.6 | 6.4 | 0.00 | 0.00 | 1.73 | 93 | 1012.8 |
| 20260503020134 | 11 | 350 | 3.2 | 8.0 | 0.00 | 0.00 | 1.73 | 93 | 1012.7 |
| 20260503015234 | 11 | 4 | 3.2 | 8.0 | 0.00 | 0.00 | 1.73 | 93 | 1012.5 |
| 20260503014334 | 11 | 11 | 3.2 | 8.0 | 0.00 | 0.00 | 1.73 | 93 | 1012.5 |
| 20260503013434 | 11 | 342 | 3.2 | 6.4 | 0.00 | 0.00 | 1.73 | 93 | 1012.3 |
| 20260503011634 | 12 | 6 | 3.2 | 8.0 | 0.00 | 0.00 | 1.73 | 93 | 1012.1 |
| 20260503010734 | 12 | 14 | 4.8 | 9.7 | 0.00 | 0.00 | 1.73 | 93 | 1012.0 |
| 20260503005834 | 12 | 330 | 3.2 | 11.3 | 0.00 | 0.00 | 1.73 | 94 | 1012.0 |
| 20260503004034 | 12 | 322 | 4.8 | 12.9 | 0.00 | 0.00 | 1.73 | 94 | 1011.4 |
| 20260503001334 | 12 | 28 | 4.8 | 12.9 | 0.00 | 0.00 | 1.73 | 94 | 1010.8 |
| 20260503000434 | 12 | 2 | 6.4 | 11.3 | 0.00 | 0.00 | 1.73 | 94 | 1010.7 |
| 20260502235534 | 12 | 338 | 6.4 | 12.9 | 0.00 | 0.00 | 1.73 | 94 | 1010.6 |
| 20260502233734 | 12 | 318 | 4.8 | 11.3 | 0.00 | 0.00 | 1.73 | 94 | 1010.5 |
| 20260502232834 | 13 | 3 | 4.8 | 11.3 | 0.00 | 0.00 | 1.73 | 94 | 1010.4 |
| 20260502231934 | 13 | 14 | 3.2 | 8.0 | 0.00 | 0.00 | 1.73 | 94 | 1010.3 |
| 20260502231034 | 13 | 355 | 3.2 | 12.9 | 0.00 | 0.00 | 1.73 | 94 | 1010.2 |
| 20260502230134 | 13 | 340 | 4.8 | 11.3 | 0.00 | 0.00 | 1.73 | 94 | 1010.1 |
| 20260502225234 | 13 | 3 | 3.2 | 8.0 | 0.03 | 0.00 | 1.73 | 94 | 1010.2 |
| 20260502224334 | 13 | 5 | 4.8 | 9.7 | 0.03 | 0.00 | 1.73 | 94 | 1010.0 |
| 20260502222534 | 13 | 351 | 4.8 | 9.7 | 0.03 | 0.00 | 1.73 | 94 | 1010.1 |
| 20260502221634 | 13 | 1 | 3.2 | 9.7 | 0.05 | 0.00 | 1.73 | 94 | 1010.2 |
| 20260502220734 | 13 | 13 | 3.2 | 9.7 | 0.05 | 0.00 | 1.73 | 94 | 1010.1 |
| 20260502215834 | 13 | 358 | 4.8 | 8.0 | 0.05 | 0.00 | 1.73 | 94 | 1010.0 |
| 20260502214934 | 13 | 13 | 6.4 | 11.3 | 0.10 | 0.00 | 1.70 | 93 | 1009.8 |
| 20260502214034 | 13 | 355 | 6.4 | 12.9 | 0.10 | 0.00 | 1.70 | 94 | 1009.7 |
| 20260502213134 | 13 | 11 | 6.4 | 11.3 | 0.10 | 0.00 | 1.70 | 94 | 1009.4 |
| 20260502212234 | 13 | 1 | 4.8 | 16.1 | 0.10 | 0.00 | 1.70 | 93 | 1009.5 |
| 20260502210434 | 13 | 9 | 4.8 | 9.7 | 0.08 | 0.00 | 1.68 | 93 | 1009.4 |
| 20260502205534 | 13 | 14 | 4.8 | 11.3 | 0.05 | 0.00 | 1.63 | 93 | 1009.5 |
| 20260502204634 | 13 | 23 | 3.2 | 11.3 | 0.03 | 0.00 | 1.60 | 93 | 1009.6 |
| 20260502202834 | 13 | 357 | 6.4 | 14.5 | 0.03 | 0.00 | 1.60 | 94 | 1009.2 |
| 20260502201934 | 13 | 1 | 6.4 | 12.9 | 0.03 | 0.00 | 1.60 | 93 | 1009.0 |
| 20260502201034 | 13 | 322 | 6.4 | 12.9 | 0.03 | 0.00 | 1.60 | 93 | 1009.1 |
| 20260502200134 | 13 | 30 | 6.4 | 12.9 | 0.00 | 0.00 | 1.57 | 93 | 1009.1 |
| 20260502195234 | 13 | 18 | 6.4 | 12.9 | 0.00 | 0.00 | 1.57 | 93 | 1009.0 |
| 20260502194334 | 13 | 15 | 8.0 | 19.3 | 0.00 | 0.00 | 1.57 | 93 | 1009.5 |
| 20260502193434 | 13 | 24 | 8.0 | 19.3 | 0.00 | 0.00 | 1.57 | 93 | 1009.5 |
| 20260502191634 | 13 | 13 | 6.4 | 12.9 | 0.05 | 0.00 | 1.57 | 94 | 1009.4 |
| 20260502190734 | 13 | 30 | 8.0 | 17.7 | 0.08 | 0.00 | 1.57 | 93 | 1009.4 |
| 20260502185834 | 13 | 35 | 6.4 | 17.7 | 0.10 | 0.00 | 1.57 | 94 | 1009.2 |
| 20260502184934 | 13 | 32 | 9.7 | 17.7 | 0.13 | 0.00 | 1.57 | 94 | 1009.2 |
| 20260502184034 | 13 | 34 | 8.0 | 22.5 | 0.15 | 0.00 | 1.57 | 94 | 1009.5 |
| 20260502182234 | 13 | 26 | 6.4 | 14.5 | 0.10 | 0.00 | 1.52 | 93 | 1009.9 |
| 20260502181334 | 13 | 9 | 8.0 | 16.1 | 0.13 | 0.00 | 1.52 | 93 | 1010.0 |
| 20260502180434 | 13 | 18 | 6.4 | 14.5 | 0.10 | 0.00 | 1.50 | 93 | 1010.2 |